sat.trackr.live / text

‹ back to catalog

STARLINK-30277

NORAD 57645 · 2023-122P

PAYLOAD ACTIVE UNKNOWN

§ Identity

Operator
Country
US
Launch date
2023-08-17
Launch site
AFETR
Launch vehicle
Mass (kg)
RCS (m²)

Purposes: comms

External: N2YO · Heavens-Above · Gunter

§ Orbital elements

Epoch: 2026-05-24T17:04:24.821760Z

Period
94.27 min
Inclination
43.0038°
Eccentricity
0.0001425
Mean motion
15.27575243 rev/d
Perigee alt
482.1 km
Apogee alt
484.0 km
Semi-major
6,861.2 km
B*
6.2721e-6
RAAN
241.0690°
Arg perigee
265.6093°
Mean anomaly
94.4595°
Rev number
15,550

§ Raw data

STARLINK-302771 57645U 23122P   26144.71139840 -.00000090  00000+0  62721-5 0  99992 57645  43.0038 241.0690 0001425 265.6093  94.4595 15.27575243155505

JSON: /api/v1/satellites/57645 · /tle

For live sub-satellite position, see the globe view (requires WebGL).

§ Visibility from observer

Set your observer location to see the next 7 days of passes ≥ 10°. The values pass through the URL so the page stays shareable.

No JS? Fill the form by hand. The geolocation button needs JavaScript.